Regional Weather Roundup
Issued by NWS

Home | Current Version | Previous Version | Text Only | Print | Product List | Glossary Off
Versions: 1 2 3 4 5 6 7 8 9 10 11 12 13 14 15 16 17 18 19 20 21 22 23 24 25 26 27 28 29 30 31 32 33 34 35 36 37 38 39 40 41 42 43 44 45 46 47 48 49 50

968
ASUS43 KLMK 110210
RWRKY
KENTUCKY REGIONAL WEATHER ROUNDUP
NATIONAL WEATHER SERVICE LOUISVILLE KY
900 PM EST SAT DEC 10 2016

NOTE "FAIR" INDICATES FEW OR NO CLOUDS BELOW 12,000 FEET
WITH NO SIGNIFICANT WEATHER AND/OR OBSTRUCTIONS TO VISIBILITY.

KYZ001>023-026-027-061>063-070>075-110300-
WESTERN AND SOUTH CENTRAL KENTUCKY

CITY           SKY/WX    TMP DP  RH WIND       PRES   REMARKS
PADUCAH        CLOUDY    37  14  38 SE8       30.36F WCI  31
HENDERSON      MOCLDY    30  18  59 SE9G17    30.37F WCI  22
OWENSBORO      CLEAR     31  19  61 SE8       30.41F WCI  23
HOPKINSVILLE   CLEAR     29  17  58 E3        30.40F
BOWLING GREEN  CLOUDY    28  17  63 CALM      30.43F
GLASGOW        CLEAR     26  19  74 CALM      30.42F
$$

KYZ024-025-028>034-038-045-046-053-110300-
NORTH CENTRAL KENTUCKY

CITY           SKY/WX    TMP DP  RH WIND       PRES   REMARKS
LOUISVILLE/SDF CLOUDY    31  15  52 SE6       30.43F WCI  25
LOUISVILLE/LOU PTCLDY    31  16  54 SE5       30.44F WCI  26
FORT KNOX      CLOUDY    29  16  57 SE6       30.39F WCI  23
$$

KYZ035>037-039>044-047>052-055>060-089>105-110300-
NORTHEAST KENTUCKY

CITY           SKY/WX    TMP DP  RH WIND       PRES   REMARKS
LEXINGTON      PTCLDY    29  15  56 SE3       30.43F
COVINGTON      CLOUDY    28  18  66 SE3       30.43F
FRANKFORT      CLOUDY    29  15  56 SE5       30.42F WCI  24
$$

KYZ054-064>069-076>088-106>120-110300-
SOUTHEAST KENTUCKY

CITY           SKY/WX    TMP DP  RH WIND       PRES   REMARKS
JACKSON        PTCLDY    28  14  55 CALM      30.42F
LONDON         CLOUDY    26  17  68 CALM      30.42F
SOMERSET       MOCLDY    27  18  69 CALM      30.45S
MIDDLESBORO    CLOUDY    26  20  78 CALM      30.44F
MONTICELLO     CLOUDY    25  20  81 VRB3      30.45F
$$





USA.gov is the U.S. government's official web portal to all federal, state and local government web resources and services.